Location: Vancouver
(49.2500°N, 123.1330°W)
Time: 07:27:12
(UTC-07:00)

Vanguard 2 Rocket - Visible Passes

Search period start: 23 April 2014 00:00
Search period end: 03 May 2014 00:00
Orbit: 555 x 3336 km, 32.9° (Epoch: 21 April)

Date Brightness Start Highest point End Pass type
(mag) Time Alt. Az. Time Alt. Az. Time Alt. Az.
29 Apr 11.0 04:44:35 10° SSE 04:46:45 10° SE 04:48:51 10° SE visible
01 May 10.8 04:52:11 10° S 05:02:59 18° SE 05:12:20 10° ESE visible
02 May 10.9 03:56:48 10° SSE 04:03:49 13° SE 04:10:24 10° ESE visible
